Вернуться в каталог

STARLINK-37243

АктивенСвязьSSO
NORAD 68608·PAYLOAD·🇺🇸 United States

Запущен Apr 5, 2026 с Vandenberg Space Force Base

Loading…

Ближайшие Пролёты (ближайшие 24 часа)

TLE

СвежийSource: CelesTrak SupGP

Эпоха: Sep 14, 2026, 23:12 UTC

1 68608C 26073G   26257.96715278  .00084132  00000+0  26119-2 0  2578
2 68608  97.2851  96.0839 0001903 102.4084 272.5169 15.33392825    13

Отслеживайте STARLINK-37243 в реальном времени с AllMySat

Download on the App Store